Time,TemperatureF,DewpointF,PressureIn,WindDirection,WindDirectionDegrees,WindSpeedMPH,WindSpeedGustMPH,Humidity,HourlyPrecipIn,Conditions,Clouds,dailyrainin,SoftwareType,DateUTC
2013-06-17 00:00:00,62.3,53.9,29.96,North,349,4.0,4.0,74,0.00,,,0.01,Wunderground v.1.15,2013-06-17 05:00:00,
2013-06-17 00:05:00,62.4,53.6,29.96,North,349,3.0,5.0,73,0.00,,,0.01,Wunderground v.1.15,2013-06-17 05:05:00,
2013-06-17 00:10:00,62.6,53.8,29.96,North,349,1.0,1.0,73,0.00,,,0.01,Wunderground v.1.15,2013-06-17 05:10:00,
2013-06-17 00:15:00,62.5,53.7,29.96,NNE,18,1.0,2.0,73,0.00,,,0.01,Wunderground v.1.15,2013-06-17 05:15:00,
2013-06-17 00:20:00,61.9,53.5,29.96,NNE,18,2.0,5.0,74,0.00,,,0.01,Wunderground v.1.15,2013-06-17 05:20:00,
2013-06-17 00:30:00,61.8,53.8,29.97,North,355,3.0,5.0,75,0.00,,,0.01,Wunderground v.1.15,2013-06-17 05:30:00,
2013-06-17 00:40:00,61.8,53.4,29.97,North,355,4.0,4.0,74,0.00,,,0.01,Wunderground v.1.15,2013-06-17 05:40:00,
2013-06-17 00:50:00,62.4,53.3,29.98,North,355,3.0,5.0,72,0.00,,,0.01,Wunderground v.1.15,2013-06-17 05:50:00,
2013-06-17 00:55:00,62.6,53.1,29.98,North,355,3.0,5.0,71,0.00,,,0.01,Wunderground v.1.15,2013-06-17 05:55:00,
2013-06-17 01:00:00,62.2,53.1,29.98,North,355,2.0,2.0,72,0.00,,,0.01,Wunderground v.1.15,2013-06-17 06:00:00,
2013-06-17 01:10:00,61.2,53.2,29.98,North,355,3.0,5.0,75,0.00,,,0.00,Wunderground v.1.15,2013-06-17 06:10:00,
2013-06-17 01:20:00,61.4,53.0,29.97,North,360,4.0,5.0,74,0.00,,,0.00,Wunderground v.1.15,2013-06-17 06:20:00,
2013-06-17 01:30:00,61.4,53.0,29.97,North,355,3.0,5.0,74,0.00,,,0.00,Wunderground v.1.15,2013-06-17 06:30:00,
2013-06-17 01:35:00,61.3,52.9,29.96,North,355,2.0,5.0,74,0.00,,,0.00,Wunderground v.1.15,2013-06-17 06:35:00,
2013-06-17 01:45:00,61.5,52.8,29.95,North,355,3.0,5.0,73,0.00,,,0.00,Wunderground v.1.15,2013-06-17 06:45:00,
2013-06-17 01:55:00,61.4,52.7,29.95,NNW,348,3.0,5.0,73,0.00,,,0.00,Wunderground v.1.15,2013-06-17 06:55:00,
2013-06-17 02:00:00,61.4,52.7,29.95,NNW,348,3.0,5.0,73,0.00,,,0.00,Wunderground v.1.15,2013-06-17 07:00:00,
2013-06-17 02:10:00,61.6,52.9,29.95,North,355,3.0,5.0,73,0.00,,,0.00,Wunderground v.1.15,2013-06-17 07:10:00,
2013-06-17 02:20:00,61.5,52.8,29.95,North,355,3.0,3.0,73,0.00,,,0.00,Wunderground v.1.15,2013-06-17 07:20:00,
2013-06-17 02:30:00,61.2,52.5,29.95,North,355,1.0,1.0,73,0.00,,,0.00,Wunderground v.1.15,2013-06-17 07:30:00,
2013-06-17 02:40:00,60.7,52.4,29.95,North,355,1.0,5.0,74,0.00,,,0.00,Wunderground v.1.15,2013-06-17 07:40:00,
2013-06-17 02:45:00,60.6,52.3,29.95,North,355,1.0,5.0,74,0.00,,,0.00,Wunderground v.1.15,2013-06-17 07:45:00,
2013-06-17 02:50:00,60.7,52.4,29.94,North,355,2.0,2.0,74,0.00,,,0.00,Wunderground v.1.15,2013-06-17 07:50:00,
2013-06-17 03:00:00,59.7,52.1,29.94,North,355,1.0,5.0,76,0.00,,,0.00,Wunderground v.1.15,2013-06-17 08:00:00,
2013-06-17 03:10:00,58.9,52.1,29.94,North,355,0.0,5.0,78,0.00,,,0.00,Wunderground v.1.15,2013-06-17 08:10:00,
2013-06-17 03:20:00,58.4,51.9,29.94,North,355,0.0,5.0,79,0.00,,,0.00,Wunderground v.1.15,2013-06-17 08:20:00,
2013-06-17 03:30:00,57.8,51.7,29.94,North,355,0.0,5.0,80,0.00,,,0.00,Wunderground v.1.15,2013-06-17 08:30:00,
2013-06-17 03:40:00,57.2,51.4,29.94,North,355,0.0,5.0,81,0.00,,,0.00,Wunderground v.1.15,2013-06-17 08:40:00,
2013-06-17 03:45:00,57.1,51.7,29.94,North,355,0.0,5.0,82,0.00,,,0.00,Wunderground v.1.15,2013-06-17 08:45:00,
2013-06-17 03:50:00,56.9,51.5,29.94,North,355,0.0,5.0,82,0.00,,,0.00,Wunderground v.1.15,2013-06-17 08:50:00,
2013-06-17 04:00:00,57.1,52.0,29.94,North,355,1.0,5.0,83,0.00,,,0.00,Wunderground v.1.15,2013-06-17 09:00:00,
2013-06-17 04:10:00,58.6,53.1,29.94,North,355,3.0,5.0,82,0.00,,,0.00,Wunderground v.1.15,2013-06-17 09:10:00,
2013-06-17 04:20:00,59.0,52.8,29.94,North,355,2.0,2.0,80,0.00,,,0.00,Wunderground v.1.15,2013-06-17 09:20:00,
2013-06-17 04:25:00,58.8,52.3,29.94,North,355,1.0,5.0,79,0.00,,,0.00,Wunderground v.1.15,2013-06-17 09:25:00,
2013-06-17 04:35:00,58.4,52.3,29.95,North,355,0.0,5.0,80,0.00,,,0.00,Wunderground v.1.15,2013-06-17 09:35:00,
2013-06-17 04:45:00,58.1,52.0,29.95,North,355,0.0,5.0,80,0.00,,,0.00,Wunderground v.1.15,2013-06-17 09:45:00,
2013-06-17 04:50:00,57.8,51.7,29.95,North,355,0.0,5.0,80,0.00,,,0.00,Wunderground v.1.15,2013-06-17 09:50:00,
2013-06-17 05:00:00,57.6,51.8,29.96,North,355,0.0,5.0,81,0.00,,,0.00,Wunderground v.1.15,2013-06-17 10:00:00,
2013-06-17 05:10:00,57.7,52.2,29.96,North,355,2.0,5.0,82,0.00,,,0.00,Wunderground v.1.15,2013-06-17 10:10:00,
2013-06-17 05:20:00,57.6,52.1,29.97,North,355,2.0,5.0,82,0.00,,,0.00,Wunderground v.1.15,2013-06-17 10:20:00,
2013-06-17 05:25:00,57.4,51.9,29.97,North,355,2.0,5.0,82,0.00,,,0.00,Wunderground v.1.15,2013-06-17 10:25:00,
2013-06-17 05:30:00,57.4,51.9,29.97,North,350,2.0,2.0,82,0.00,,,0.00,Wunderground v.1.15,2013-06-17 10:30:00,
2013-06-17 05:40:00,57.1,51.7,29.97,North,350,0.0,5.0,82,0.00,,,0.00,Wunderground v.1.15,2013-06-17 10:40:00,
2013-06-17 05:50:00,56.8,51.4,29.98,North,350,0.0,5.0,82,0.00,,,0.00,Wunderground v.1.15,2013-06-17 10:50:00,
2013-06-17 06:00:00,56.1,50.7,29.99,North,350,0.0,4.0,82,0.00,,,0.00,Wunderground v.1.15,2013-06-17 11:00:00,
2013-06-17 06:10:00,55.5,50.4,29.99,North,350,0.0,4.0,83,0.00,,,0.00,Wunderground v.1.15,2013-06-17 11:10:00,
2013-06-17 06:15:00,55.4,50.6,29.99,North,350,0.0,4.0,84,0.00,,,0.00,Wunderground v.1.15,2013-06-17 11:15:00,
2013-06-17 06:25:00,55.4,50.6,29.99,North,350,0.0,4.0,84,0.00,,,0.00,Wunderground v.1.15,2013-06-17 11:25:00,
2013-06-17 06:30:00,55.5,51.1,29.99,North,350,0.0,4.0,85,0.00,,,0.00,Wunderground v.1.15,2013-06-17 11:30:00,
2013-06-17 06:40:00,56.1,51.7,29.99,North,350,0.0,4.0,85,0.00,,,0.00,Wunderground v.1.15,2013-06-17 11:40:00,
2013-06-17 06:50:00,56.7,52.2,29.99,WSW,246,1.0,4.0,85,0.00,,,0.00,Wunderground v.1.15,2013-06-17 11:50:00,
2013-06-17 07:00:00,57.1,52.6,29.99,WSW,246,2.0,2.0,85,0.00,,,0.00,Wunderground v.1.15,2013-06-17 12:00:00,
2013-06-17 07:10:00,57.8,53.6,29.99,WSW,246,0.0,4.0,86,0.00,,,0.00,Wunderground v.1.15,2013-06-17 12:10:00,
2013-06-17 07:15:00,58.1,53.9,30.00,WSW,246,1.0,4.0,86,0.00,,,0.00,Wunderground v.1.15,2013-06-17 12:15:00,
2013-06-17 07:20:00,58.4,53.9,29.99,WSW,246,1.0,4.0,85,0.00,,,0.00,Wunderground v.1.15,2013-06-17 12:20:00,
2013-06-17 07:30:00,59.2,54.7,29.99,WSW,246,1.0,1.0,85,0.00,,,0.00,Wunderground v.1.15,2013-06-17 12:30:00,
2013-06-17 07:40:00,60.1,55.2,29.99,WSW,246,0.0,4.0,84,0.00,,,0.00,Wunderground v.1.15,2013-06-17 12:40:00,
2013-06-17 07:50:00,61.5,56.3,29.99,WSW,246,0.0,4.0,83,0.00,,,0.00,Wunderground v.1.15,2013-06-17 12:50:00,
2013-06-17 08:00:00,62.6,56.3,29.99,WSW,246,0.0,4.0,80,0.00,,,0.00,Wunderground v.1.15,2013-06-17 13:00:00,
2013-06-17 08:10:00,63.2,56.6,29.99,WSW,246,2.0,4.0,79,0.00,,,0.00,Wunderground v.1.15,2013-06-17 13:10:00,
2013-06-17 08:15:00,63.5,56.5,29.99,WNW,283,2.0,4.0,78,0.00,,,0.00,Wunderground v.1.15,2013-06-17 13:15:00,
2013-06-17 08:20:00,64.0,57.0,30.00,WNW,300,3.0,3.0,78,0.00,,,0.00,Wunderground v.1.15,2013-06-17 13:20:00,
2013-06-17 08:30:00,64.8,57.1,30.00,West,273,2.0,4.0,76,0.00,,,0.00,Wunderground v.1.15,2013-06-17 13:30:00,
2013-06-17 08:40:00,65.7,57.9,30.01,WSW,248,2.0,2.0,76,0.00,,,0.00,Wunderground v.1.15,2013-06-17 13:40:00,
2013-06-17 08:50:00,66.6,58.4,30.01,West,278,2.0,2.0,75,0.00,,,0.00,Wunderground v.1.15,2013-06-17 13:50:00,
2013-06-17 09:00:00,67.9,57.4,30.01,North,355,2.0,6.0,69,0.00,,,0.00,Wunderground v.1.15,2013-06-17 14:00:00,
2013-06-17 09:10:00,68.6,57.6,30.01,NNW,332,3.0,4.0,68,0.00,,,0.00,Wunderground v.1.15,2013-06-17 14:10:00,
2013-06-17 09:20:00,69.0,58.0,30.01,North,351,3.0,3.0,68,0.00,,,0.00,Wunderground v.1.15,2013-06-17 14:20:00,
2013-06-17 09:30:00,69.7,57.8,30.02,NNW,344,2.0,2.0,66,0.00,,,0.00,Wunderground v.1.15,2013-06-17 14:30:00,
2013-06-17 09:40:00,70.3,58.0,30.02,NNW,345,3.0,3.0,65,0.00,,,0.00,Wunderground v.1.15,2013-06-17 14:40:00,
2013-06-17 09:45:00,70.9,59.0,30.02,NNW,341,3.0,4.0,66,0.00,,,0.00,Wunderground v.1.15,2013-06-17 14:45:00,
2013-06-17 09:55:00,71.6,58.3,30.02,ENE,57,2.0,4.0,63,0.00,,,0.00,Wunderground v.1.15,2013-06-17 14:55:00,
2013-06-17 10:00:00,72.0,59.6,30.02,North,355,2.0,4.0,65,0.00,,,0.00,Wunderground v.1.15,2013-06-17 15:00:00,
2013-06-17 10:10:00,72.5,58.7,30.02,North,360,2.0,4.0,62,0.00,,,0.00,Wunderground v.1.15,2013-06-17 15:10:00,
2013-06-17 10:20:00,73.1,59.3,30.02,North,351,2.0,4.0,62,0.00,,,0.00,Wunderground v.1.15,2013-06-17 15:20:00,
2013-06-17 10:30:00,73.8,57.1,30.02,North,355,2.0,4.0,56,0.00,,,0.00,Wunderground v.1.15,2013-06-17 15:30:00,
2013-06-17 10:35:00,74.0,56.8,30.02,East,88,2.0,4.0,55,0.00,,,0.00,Wunderground v.1.15,2013-06-17 15:35:00,
2013-06-17 10:45:00,74.8,57.5,30.01,NE,35,2.0,4.0,55,0.00,,,0.00,Wunderground v.1.15,2013-06-17 15:45:00,
2013-06-17 10:50:00,74.9,55.6,30.01,NE,56,2.0,4.0,51,0.00,,,0.00,Wunderground v.1.15,2013-06-17 15:50:00,
2013-06-17 11:00:00,75.8,56.9,30.01,North,360,2.0,4.0,52,0.00,,,0.00,Wunderground v.1.15,2013-06-17 16:00:00,
2013-06-17 11:10:00,76.1,56.1,30.01,NNE,14,3.0,4.0,50,0.00,,,0.00,Wunderground v.1.15,2013-06-17 16:10:00,
2013-06-17 11:15:00,76.4,54.7,30.01,NNE,31,3.0,4.0,47,0.00,,,0.00,Wunderground v.1.15,2013-06-17 16:15:00,
2013-06-17 11:25:00,76.8,57.3,30.02,NE,44,4.0,5.0,51,0.00,,,0.00,Wunderground v.1.15,2013-06-17 16:25:00,
2013-06-17 11:30:00,77.3,57.2,30.02,NE,53,3.0,3.0,50,0.00,,,0.00,Wunderground v.1.15,2013-06-17 16:30:00,
2013-06-17 11:40:00,77.7,57.0,30.02,NNE,12,3.0,5.0,49,0.00,,,0.00,Wunderground v.1.15,2013-06-17 16:40:00,
2013-06-17 11:50:00,77.1,57.0,30.02,NE,44,4.0,4.0,50,0.00,,,0.00,Wunderground v.1.15,2013-06-17 16:50:00,
2013-06-17 12:00:00,76.7,56.1,30.03,NE,39,3.0,3.0,49,0.00,,,0.00,Wunderground v.1.15,2013-06-17 17:00:00,
2013-06-17 12:10:00,77.1,58.1,30.04,NE,34,3.0,11.0,52,0.00,,,0.00,Wunderground v.1.15,2013-06-17 17:10:00,
2013-06-17 12:20:00,77.5,59.0,30.03,NNW,339,4.0,11.0,53,0.00,,,0.00,Wunderground v.1.15,2013-06-17 17:20:00,
2013-06-17 12:30:00,77.4,56.7,30.04,East,84,4.0,11.0,49,0.00,,,0.00,Wunderground v.1.15,2013-06-17 17:30:00,
2013-06-17 12:40:00,77.7,57.6,30.03,North,5,4.0,11.0,50,0.00,,,0.00,Wunderground v.1.15,2013-06-17 17:40:00,
2013-06-17 12:50:00,77.5,59.0,30.03,NNW,346,5.0,11.0,53,0.00,,,0.00,Wunderground v.1.15,2013-06-17 17:50:00,
2013-06-17 12:55:00,77.6,57.5,30.03,North,360,5.0,11.0,50,0.00,,,0.00,Wunderground v.1.15,2013-06-17 17:55:00,
2013-06-17 13:05:00,77.6,55.8,30.03,NNW,342,5.0,11.0,47,0.00,,,0.00,Wunderground v.1.15,2013-06-17 18:05:00,
2013-06-17 13:15:00,77.7,58.1,30.03,NE,51,4.0,11.0,51,0.00,,,0.00,Wunderground v.1.15,2013-06-17 18:15:00,
2013-06-17 13:20:00,77.8,56.5,30.03,North,5,3.0,3.0,48,0.00,,,0.00,Wunderground v.1.15,2013-06-17 18:20:00,
2013-06-17 13:30:00,78.2,56.3,30.03,NW,310,4.0,4.0,47,0.00,,,0.00,Wunderground v.1.15,2013-06-17 18:30:00,
2013-06-17 13:40:00,79.0,57.6,30.04,North,5,5.0,11.0,48,0.00,,,0.00,Wunderground v.1.15,2013-06-17 18:40:00,
2013-06-17 13:50:00,78.5,56.6,30.04,NW,325,4.0,11.0,47,0.00,,,0.00,Wunderground v.1.15,2013-06-17 18:50:00,
2013-06-17 13:55:00,78.2,56.3,30.04,NNE,30,3.0,11.0,47,0.00,,,0.00,Wunderground v.1.15,2013-06-17 18:55:00,
2013-06-17 14:05:00,78.8,55.7,30.04,NW,317,5.0,11.0,45,0.00,,,0.00,Wunderground v.1.15,2013-06-17 19:05:00,
2013-06-17 14:10:00,78.5,52.8,30.04,NNW,346,6.0,11.0,41,0.00,,,0.00,Wunderground v.1.15,2013-06-17 19:10:00,
2013-06-17 14:20:00,77.5,53.2,30.04,North,355,6.0,11.0,43,0.00,,,0.00,Wunderground v.1.15,2013-06-17 19:20:00,
2013-06-17 14:25:00,77.2,54.2,30.03,NNE,24,4.0,11.0,45,0.00,,,0.00,Wunderground v.1.15,2013-06-17 19:25:00,
2013-06-17 14:35:00,76.7,52.5,30.02,NNW,329,4.0,11.0,43,0.00,,,0.00,Wunderground v.1.15,2013-06-17 19:35:00,
2013-06-17 14:45:00,77.4,53.1,30.00,NE,42,3.0,11.0,43,0.00,,,0.00,Wunderground v.1.15,2013-06-17 19:45:00,
2013-06-17 14:50:00,77.7,54.0,30.00,NE,47,3.0,3.0,44,0.00,,,0.00,Wunderground v.1.15,2013-06-17 19:50:00,
2013-06-17 15:00:00,77.9,56.0,30.00,ENE,66,3.0,3.0,47,0.00,,,0.00,Wunderground v.1.15,2013-06-17 20:00:00,
2013-06-17 15:10:00,78.8,56.9,30.00,NE,56,2.0,2.0,47,0.00,,,0.00,Wunderground v.1.15,2013-06-17 20:10:00,
2013-06-17 15:20:00,77.9,51.6,29.99,ENE,63,6.0,11.0,40,0.00,,,0.00,Wunderground v.1.15,2013-06-17 20:20:00,
2013-06-17 15:25:00,77.5,51.3,29.99,NE,35,5.0,11.0,40,0.00,,,0.00,Wunderground v.1.15,2013-06-17 20:25:00,
2013-06-17 15:35:00,77.5,53.9,29.98,East,80,5.0,7.0,44,0.00,,,0.00,Wunderground v.1.15,2013-06-17 20:35:00,
2013-06-17 15:40:00,78.5,53.5,29.98,East,79,6.0,11.0,42,0.00,,,0.00,Wunderground v.1.15,2013-06-17 20:40:00,
2013-06-17 15:50:00,79.0,53.9,29.99,East,97,5.0,11.0,42,0.00,,,0.00,Wunderground v.1.15,2013-06-17 20:50:00,
2013-06-17 16:00:00,79.4,56.8,29.99,East,92,4.0,11.0,46,0.00,,,0.00,Wunderground v.1.15,2013-06-17 21:00:00,
2013-06-17 16:10:00,79.6,54.5,29.98,East,79,4.0,11.0,42,0.00,,,0.00,Wunderground v.1.15,2013-06-17 21:10:00,
2013-06-17 16:15:00,79.2,54.8,29.99,NNE,14,4.0,11.0,43,0.00,,,0.00,Wunderground v.1.15,2013-06-17 21:15:00,
2013-06-17 16:25:00,79.6,54.5,29.99,NE,56,3.0,11.0,42,0.00,,,0.00,Wunderground v.1.15,2013-06-17 21:25:00,
2013-06-17 16:30:00,79.8,54.7,29.99,North,5,2.0,11.0,42,0.00,,,0.00,Wunderground v.1.15,2013-06-17 21:30:00,
2013-06-17 16:40:00,79.9,57.3,30.00,NW,319,2.0,11.0,46,0.00,,,0.00,Wunderground v.1.15,2013-06-17 21:40:00,
2013-06-17 16:50:00,80.0,55.5,29.99,North,5,3.0,11.0,43,0.00,,,0.00,Wunderground v.1.15,2013-06-17 21:50:00,
2013-06-17 17:00:00,80.2,56.9,29.99,WNW,284,2.0,11.0,45,0.00,,,0.00,Wunderground v.1.15,2013-06-17 22:00:00,
2013-06-17 17:05:00,80.1,55.6,29.99,ENE,57,3.0,11.0,43,0.00,,,0.00,Wunderground v.1.15,2013-06-17 22:05:00,
2013-06-17 17:15:00,79.6,55.8,29.99,NNE,15,3.0,4.0,44,0.00,,,0.00,Wunderground v.1.15,2013-06-17 22:15:00,
2013-06-17 17:20:00,79.9,57.3,29.99,ENE,57,2.0,2.0,46,0.00,,,0.00,Wunderground v.1.15,2013-06-17 22:20:00,
2013-06-17 17:30:00,80.0,55.5,29.98,ENE,77,2.0,2.0,43,0.00,,,0.00,Wunderground v.1.15,2013-06-17 22:30:00,
2013-06-17 17:40:00,80.6,54.7,29.97,North,5,1.0,11.0,41,0.00,,,0.00,Wunderground v.1.15,2013-06-17 22:40:00,
2013-06-17 17:50:00,80.7,54.8,29.97,ENE,59,2.0,11.0,41,0.00,,,0.00,Wunderground v.1.15,2013-06-17 22:50:00,
2013-06-17 18:00:00,80.1,56.2,29.98,North,5,3.0,7.0,44,0.00,,,0.00,Wunderground v.1.15,2013-06-17 23:00:00,
2013-06-17 18:10:00,79.9,54.8,29.98,NNE,30,3.0,3.0,42,0.00,,,0.00,Wunderground v.1.15,2013-06-17 23:10:00,
2013-06-17 18:15:00,80.0,54.2,29.98,NNE,30,2.0,7.0,41,0.00,,,0.00,Wunderground v.1.15,2013-06-17 23:15:00,
2013-06-17 18:20:00,80.1,55.6,29.97,East,95,2.0,7.0,43,0.00,,,0.00,Wunderground v.1.15,2013-06-17 23:20:00,
2013-06-17 18:30:00,79.7,55.2,29.97,ENE,72,3.0,7.0,43,0.00,,,0.00,Wunderground v.1.15,2013-06-17 23:30:00,
2013-06-17 18:40:00,79.6,55.1,29.97,East,96,3.0,3.0,43,0.00,,,0.00,Wunderground v.1.15,2013-06-17 23:40:00,
2013-06-17 18:50:00,79.7,55.9,29.97,NNE,12,2.0,2.0,44,0.00,,,0.00,Wunderground v.1.15,2013-06-17 23:50:00,
2013-06-17 19:00:00,79.9,55.4,29.97,NNE,30,1.0,1.0,43,0.00,,,0.00,Wunderground v.1.15,2013-06-18 00:00:00,
2013-06-17 19:05:00,79.9,55.4,29.97,NE,54,2.0,2.0,43,0.00,,,0.00,Wunderground v.1.15,2013-06-18 00:05:00,
2013-06-17 19:15:00,79.4,56.2,29.98,NNW,342,3.0,3.0,45,0.00,,,0.00,Wunderground v.1.15,2013-06-18 00:15:00,
2013-06-17 19:20:00,79.0,57.6,29.98,NNE,15,3.0,3.0,48,0.00,,,0.00,Wunderground v.1.15,2013-06-18 00:20:00,
2013-06-17 19:30:00,78.6,57.3,29.98,North,11,2.0,2.0,48,0.00,,,0.00,Wunderground v.1.15,2013-06-18 00:30:00,
2013-06-17 19:40:00,78.7,57.4,29.98,ENE,76,1.0,7.0,48,0.00,,,0.00,Wunderground v.1.15,2013-06-18 00:40:00,
2013-06-17 19:50:00,78.3,56.4,29.98,NW,311,2.0,2.0,47,0.00,,,0.00,Wunderground v.1.15,2013-06-18 00:50:00,
2013-06-17 20:00:00,78.1,56.8,29.97,NW,324,1.0,1.0,48,0.00,,,0.00,Wunderground v.1.15,2013-06-18 01:00:00,
2013-06-17 20:05:00,77.8,56.0,29.97,North,355,1.0,2.0,47,0.00,,,0.00,Wunderground v.1.15,2013-06-18 01:05:00,
2013-06-17 20:15:00,76.6,56.0,29.97,NE,44,2.0,7.0,49,0.00,,,0.00,Wunderground v.1.15,2013-06-18 01:15:00,
2013-06-17 20:20:00,76.0,56.0,29.97,NNE,21,1.0,1.0,50,0.00,,,0.00,Wunderground v.1.15,2013-06-18 01:20:00,
2013-06-17 20:30:00,74.8,55.5,29.97,North,11,1.0,1.0,51,0.00,,,0.00,Wunderground v.1.15,2013-06-18 01:30:00,
2013-06-17 20:40:00,74.1,55.9,29.97,North,11,0.0,7.0,53,0.00,,,0.00,Wunderground v.1.15,2013-06-18 01:40:00,
2013-06-17 20:50:00,73.5,56.3,29.97,North,11,0.0,7.0,55,0.00,,,0.00,Wunderground v.1.15,2013-06-18 01:50:00,
2013-06-17 21:00:00,72.7,56.1,29.97,North,11,0.0,7.0,56,0.00,,,0.00,Wunderground v.1.15,2013-06-18 02:00:00,
2013-06-17 21:05:00,72.3,56.2,29.97,North,11,0.0,7.0,57,0.00,,,0.00,Wunderground v.1.15,2013-06-18 02:05:00,
2013-06-17 21:10:00,71.9,56.3,29.97,North,11,0.0,7.0,58,0.00,,,0.00,Wunderground v.1.15,2013-06-18 02:10:00,
2013-06-17 21:20:00,70.9,56.3,29.97,North,11,0.0,7.0,60,0.00,,,0.00,Wunderground v.1.15,2013-06-18 02:20:00,
2013-06-17 21:30:00,69.9,56.7,29.98,North,11,0.0,7.0,63,0.00,,,0.00,Wunderground v.1.15,2013-06-18 02:30:00,
2013-06-17 21:40:00,69.1,56.8,29.99,North,11,0.0,7.0,65,0.00,,,0.00,Wunderground v.1.15,2013-06-18 02:40:00,
2013-06-17 21:50:00,68.1,56.3,30.00,North,11,0.0,7.0,66,0.00,,,0.00,Wunderground v.1.15,2013-06-18 02:50:00,
2013-06-17 21:55:00,67.6,56.2,29.99,North,11,0.0,7.0,67,0.00,,,0.00,Wunderground v.1.15,2013-06-18 02:55:00,
2013-06-17 22:05:00,66.6,56.5,30.00,North,11,0.0,7.0,70,0.00,,,0.00,Wunderground v.1.15,2013-06-18 03:05:00,
2013-06-17 22:15:00,65.4,56.1,30.00,North,11,0.0,7.0,72,0.00,,,0.00,Wunderground v.1.15,2013-06-18 03:15:00,
2013-06-17 22:20:00,65.0,56.1,30.00,North,11,0.0,7.0,73,0.00,,,0.00,Wunderground v.1.15,2013-06-18 03:20:00,
2013-06-17 22:30:00,64.3,56.6,30.01,North,11,0.0,7.0,76,0.00,,,0.00,Wunderground v.1.15,2013-06-18 03:30:00,
2013-06-17 22:40:00,64.0,56.6,30.00,North,11,0.0,7.0,77,0.00,,,0.00,Wunderground v.1.15,2013-06-18 03:40:00,
2013-06-17 22:50:00,64.0,56.6,30.00,North,11,0.0,7.0,77,0.00,,,0.00,Wunderground v.1.15,2013-06-18 03:50:00,
2013-06-17 23:00:00,63.4,56.4,30.00,North,11,0.0,7.0,78,0.00,,,0.00,Wunderground v.1.15,2013-06-18 04:00:00,
2013-06-17 23:05:00,63.2,56.2,30.00,North,11,0.0,7.0,78,0.00,,,0.00,Wunderground v.1.15,2013-06-18 04:05:00,
2013-06-17 23:10:00,63.0,55.7,30.00,North,11,0.0,7.0,77,0.00,,,0.00,Wunderground v.1.15,2013-06-18 04:10:00,
2013-06-17 23:15:00,62.9,55.9,29.99,North,11,0.0,7.0,78,0.00,,,0.00,Wunderground v.1.15,2013-06-18 04:15:00,
2013-06-17 23:20:00,62.9,55.9,29.99,North,11,0.0,7.0,78,0.00,,,0.00,Wunderground v.1.15,2013-06-18 04:20:00,
2013-06-17 23:30:00,62.9,55.9,29.99,North,11,0.0,7.0,78,0.00,,,0.00,Wunderground v.1.15,2013-06-18 04:30:00,
2013-06-17 23:40:00,62.5,55.5,29.99,North,11,0.0,7.0,78,0.00,,,0.00,Wunderground v.1.15,2013-06-18 04:40:00,
2013-06-17 23:45:00,62.3,55.7,30.00,North,11,0.0,7.0,79,0.00,,,0.00,Wunderground v.1.15,2013-06-18 04:45:00,
2013-06-17 23:50:00,62.1,55.5,30.00,North,11,0.0,7.0,79,0.00,,,0.00,Wunderground v.1.15,2013-06-18 04:50:00,